NOAA 17 DEB, 48741

Orbit data source: Space-Track

NOAA 17 DEB, 48741 is space debris in SSO originally from a launch on Mon, 24 Jun 2002 UTC launched from the Air Force Western Test Range (AFWTR). Debris objects in space refer to the collection of defunct objects orbiting the Earth. Examples of debris include non-operational satellites, rocket bodies, and fragments generated from explosions, collisions, or faulty payload assembly.

Loading next visibility...
Identifier
48741, 2002-032CA
Orbit
SSO
Country
Flag of USUS
Related business
Manufacturer
Unknown
Mission
Spacecraft
Bus & Motor
Unknown
Mass
Unknown
Launch date (UTC)
2002-06-24 (23 years ago)
Launch vehicle
Unknown
Launch site
Air Force Western Test Range (AFWTR)
Object type
Payload
Rocket body
Debris
Shape & HBR
Unknown shape, 0.1 m
Radar Cross Section
Small (<0.1 m²)

Expand to show TLE details & history
Last TLE update: 2 days ago

TLE from 2 days ago
0 NOAA 17 DEB
1 48741U 02032CA  25348.21045976  .00024855  00000-0  40740-2 0  9998
2 48741  98.6870 332.5491 0007772  24.0861 336.0706 14.70681043248053
Epoch: 2025-12-14T05:03Z
TLE epoch observation values (Epoch: 2025-12-14T05:03:03.723Z)
Latitude
0.00004°
Longitude
173.65694°
Altitude
656.88 km
Speed
7.532 km/s
True Right ascension
22h 10m 11s
True Declination
0° 00' 00"
Sunlit
Object was in daylight at epoch
Visualization orbit readout
Latitude
Unknown
Longitude
Unknown
Altitude
Unknown
Speed
Unknown
Apparent Right ascension
Unknown
Apparent Declination
Unknown
Sunlit
N/A
Visualization observer readout
Local Sidereal Time
17:03:50
Azimuth
Unknown
Elevation
Unknown
Doppler factor
Unknown
Orbital elements
Apogee altitude
661.452 km
Perigee altitude
650.518 km
Semi-major axis
7,034.122 km
Eccentricity
0.00078
Inclination
98.687°
RAAN
332.5491°
Arg. of periapsis
24.0861°
True anomaly
336.03444°
Mean anomaly
336.0706°
Eccentric anomaly
336.05253°
Mean motion
3.67899 °/min
Orbital period
97.85 mins
BSTAR
0.004074
Loading maneuver chart data...
Computing Atmospheric mass density...
Loading historical data...
Loading historical data...
Loading historical data...
Loading historical data...
Loading historical data...
Loading historical data...
Loading historical data...

Documentation

Showing up to 5 results
|